Regional Weather Roundup
Issued by NWS

Home | Current Version | Previous Version | Graphics & Text | Print | Product List | Glossary On
Versions: 1 2 3 4 5 6 7 8 9 10 11 12 13 14 15 16 17 18 19 20 21 22 23 24 25 26 27
000
ASUS45 KBOU 260107
RWRCO

WEATHER ROUNDUP FOR COLORADO
NATIONAL WEATHER SERVICE DENVER/BOULDER CO
700 PM MDT SUN JUN 25 2017

NOTE: "FAIR" INDICATES FEW OR NO CLOUDS BELOW 12000 FEET WITH NO
SIGNIFICANT WEATHER AND/OR OBSTRUCTIONS TO VISIBILITY.

COZ001>005-013-030-031-260200-
...NORTHWEST COLORADO...

CITY           SKY/WX    TMP DP  RH WIND       PRES   REMARKS
CRAIG          FAIR      82  22  11 NW5       30.26S
HAYDEN         FAIR      79  27  14 NW12      30.28S
MEEKER         FAIR      82  28  14 NE7       30.26F
RABBIT EARS PA FAIR      59  30  33 NW8       30.59S
STEAMBOAT SPGS FAIR      77  33  20 W5        30.30S
WALDEN         FAIR      70  28  21 N15       30.42R
$$

COZ006>008-011-260200-
...WEST CENTRAL VALLEYS...

CITY           SKY/WX    TMP DP  RH WIND       PRES   REMARKS
GRAND JUNCTION FAIR      93  24   8 W7        30.06F
MONTROSE       FAIR      89  22   8 N6        30.14F
EAGLE          SUNNY     84  32  15 N16       30.25S
RIFLE          FAIR      89  26  10 N10G16    30.15S
DELTA          FAIR      95  16   5 N10       30.09S
NUCLA          FAIR      90  16   6 NW15      30.18S
$$

COZ017>023-064>068-260200-
...SOUTHWEST COLORADO...

CITY           SKY/WX    TMP DP  RH WIND       PRES   REMARKS
DURANGO        FAIR      86  21   9 W18G28    30.18F
CORTEZ         FAIR      89  27  10 W7G17     30.13F
PAGOSA SPRINGS FAIR      84  17   8 SW16G23   30.26S
TELLURIDE      FAIR      76   9   7 W14G20    30.44S
WOLF CREEK PAS FAIR      59  28  31 S10G21    30.67S
$$

COZ009-010-012-014-032>034-037-058>063-260200-
...CENTRAL COLORADO...

CITY           SKY/WX    TMP DP  RH WIND       PRES   REMARKS
ASPEN          FAIR      79  21  11 N12       30.32S
BUENA VISTA    FAIR      80   9   6 NW17G28   30.31R
COPPER MTN     PTSUNNY   61  23  23 NW17      30.67F
BERTHOUD PASS  FAIR      50  36  57 NW18G29   30.71S
COTTONWOOD PAS FAIR      77  -4   4 CALM      30.48R
GUNNISON       FAIR      79  31  17 VRB5      30.30F
KREMMLING      NOT AVBL
LEADVILLE      FAIR      68  15  13 W16       30.48S
MONARCH PASS   FAIR      55  41  58 E18       30.74F
SALIDA         FAIR      75  46  36 SE25G36   30.35R
SUNLIGHT       FAIR      63  21  20 NW5       30.61F
WILKERSON PASS PTSUNNY   54  43  66 NE9G16    30.64S
$$

COZ069>075-260200-
...SAN LUIS VALLEY/SANGRE DE CRISTO MOUNTAINS...

CITY           SKY/WX    TMP DP  RH WIND       PRES   REMARKS
ALAMOSA        FAIR      73  44  35 W7        30.25F
DEL NORTE      FAIR      78  39  24 SW8       30.30S
LA VETA PASS   CLOUDY    54  50  87 N16       30.63R
SAGUACHE       FAIR      81  19  10 NW13G29   30.28S
$$

COZ035-036-038>040-260200-
...NORTHERN COLORADO FRONT RANGE...

CITY           SKY/WX    TMP DP  RH WIND       PRES   REMARKS
DENVER INTL AP FAIR      70  53  54 NE16      30.29R
DMNS CITY PARK   N/A     71  51  48 N13G18    30.28S
AURORA         PTSUNNY   71  55  55 NE13      30.30R
FRONT RANGE AP CLOUDY    72  54  53 NE15G21   30.30R
ERIE MUNI ARPT FAIR      71  51  48 N6        30.28S
BOULDER MUN AP FAIR      70  50  49 NE3       30.29S
CENTENNIAL     PTSUNNY   70  53  54 NE12      30.30S
BROOMFIELD     FAIR      70  48  46 CALM      30.31F
FORT COLLINS   FAIR      73  51  46 VRB3      30.29S
LONGMONT       FAIR      74  50  42 E3        30.30S
$$

COZ041-046-047-076>085-087-088-260200-
...PIKES PEAK/PALMER DIVIDE AND SOUTHERN FOOTHILLS...

CITY           SKY/WX    TMP DP  RH WIND       PRES   REMARKS
COLO. SPRINGS  PTSUNNY   71  55  56 SE17      30.30S
A. F. ACADEMY  CLOUDY    69  53  55 NW7       30.31S
SCHRIEVER AFB  FAIR      66  54  65 E17G23    30.30S
CHEYENNE MTN   PTSUNNY   64  54  71 S6        30.30S
ELLICOTT       FAIR     N/A N/A N/A E20G26    30.29R
FALCON           N/A     64  53  68 SE13      30.35S
FORT CARSON    FAIR      70  55  58 E14       30.28R
LIMON          FAIR      66  55  67 SE21      30.28S
MONUMENT HILL  FAIR      64  50  59 N14G21    30.37S
CANON CITY     SUNNY     79  57  47 NE24      30.22R
WALSENBURG     MOCLDY    66  63  88 SE20      30.20F
TRINIDAD       LGT RAIN  67  59  75 CALM      30.24R
$$

COZ042>045-048>051-090-091-260200-
...NORTHEAST COLORADO...

CITY           SKY/WX    TMP DP  RH WIND       PRES   REMARKS
GREELEY ARPT   FAIR      71  53  52 CALM      30.28S
AKRON          FAIR      64  53  67 SE14      30.29S
BURLINGTON     CLOUDY    64  57  78 E13       30.27S
WRAY           CLOUDY    64  54  68 SE7       30.28R
YUMA           FAIR      63  54  72 SE6       30.29R
STERLING       FAIR      70  54  56 SE9       30.25S
HOLYOKE        NOT AVBL
FORT MORGAN    CLOUDY    70  52  52 E14       30.28S
$$

COZ086-089-092>099-260200-
...SOUTHEAST COLORADO...

CITY           SKY/WX    TMP DP  RH WIND       PRES   REMARKS
PUEBLO         FAIR      74  58  57 E23G30    30.19R
LA JUNTA       FAIR      72  60  66 E22       30.16F
LAMAR          CLOUDY    69  59  70 E18G26    30.17F
SPRINGFIELD      N/A     64  61  90 E16G30    30.22R
$$




USA.gov is the U.S. government's official web portal to all federal, state and local government web resources and services.